Regional Weather Roundup
Issued by NWS Cleveland, OH

Home | Current Version | Previous Version | Text Only | Print | Product List | Glossary On
Versions: 1 2 3 4 5 6 7 8 9 10 11 12 13 14 15 16 17 18 19 20 21 22 23 24 25 26 27 28 29 30 31 32 33 34 35 36 37 38 39 40 41 42 43 44 45 46 47 48 49 50
000
ASUS41 KCLE 150000
RWRCLE
OHIO REGIONAL WEATHER ROUNDUP
NATIONAL WEATHER SERVICE WILMINGTON, OH
700 PM EST SUN FEB 14 2016

NOTE: "FAIR" INDICATES FEW OR NO CLOUDS BELOW 12,000 FEET WITH NO
SIGNIFICANT WEATHER AND/OR OBSTRUCTIONS TO VISIBILITY.

OHZ001>008-015>018-024>027-034-035-043-044-150100-
   NORTHWEST OHIO

CITY           SKY/WX    TMP DP  RH WIND       PRES   REMARKS
DEFIANCE       LGT SNOW  18  12  77 SE10      30.23S WCI   6
FINDLAY        LGT SNOW  18  10  71 E9        30.22F WCI   7
TOLEDO EXPRESS CLOUDY    17   4  56 SE7       30.24F WCI   8
TOLEDO EXEC    CLOUDY    19   5  54 E12       30.27F WCI   7
LIMA           LGT SNOW  16  11  80 SE14      30.19F WCI   2
$$

OHZ009>014-019>023-028>033-038-089-150100-
   NORTHEAST OHIO

CITY           SKY/WX    TMP DP  RH WIND       PRES   REMARKS
CLE-HOPKINS    CLOUDY    17   1  49 E9        30.32F WCI   6
CLE-LAKEFRONT  FAIR      20   3  48 SE9       30.31F WCI   9
CUY CO. ARPT   CLOUDY    28   3  34 SE9       30.32S WCI  20
LORAIN-ELYRIA  CLOUDY    17   2  51 E9        30.27F WCI   6
ASHTABULA      FAIR      12  -1  56 E3        30.33F
AKRON-CANTON   CLOUDY    17   0  47 E10       30.26F WCI   5
WOOSTER        NOT AVBL
MANSFIELD      LGT SNOW  16   6  65 SE12      30.22F WCI   3
YOUNGSTOWN     CLOUDY    15   1  53 SE12      30.30F WCI   2
$$

OHZ042-051>053-060>062-070>072-077>081-150100-
  SOUTHWEST OHIO

CITY           SKY/WX    TMP DP  RH WIND       PRES   REMARKS
CINC-COVINGTON LGT SNOW  18  14  84 E10       30.14F FOG     WCI   6
CINC-LUNKEN    LGT SNOW  19  16  88 E5        30.21R VSB 1   WCI  12
HAMILTON       LGT SNOW  19  16  88 E8        30.20S FOG     WCI   9
DAYTON         NOT AVBL
WRIGHT-PAT AFB LGT SNOW  18  14  86 E8        30.19F VSB 1   WCI   7
DAYTON GENERAL LGT SNOW  17  12  80 E9        30.16F WCI   6
WILMINGTON     LGT SNOW  16  13  88 E9        30.17S VSB 3/4 WCI   4
$$

OHZ036-037-039>041-045>050-054>059-063>069-073>076-082>088-150100-
  CENTRAL AND SOUTHEAST OHIO

CITY           SKY/WX    TMP DP  RH WIND       PRES   REMARKS
COLUMBUS       SNOW      16  11  80 SE7       30.25R VSB 1/2 WCI   6
OSU AIRPORT    LGT SNOW  16  12  84 E10       30.24R FOG     WCI   4
BOLTON FIELD   LGT SNOW  18  14  86 E6        30.24S WCI   9
RICKENBACK AFB NOT AVBL
NEWARK         LGT SNOW  17  12  80 E6        30.25R VSB 1   WCI   9
MARION         LGT SNOW  17   9  70 SE13      30.24R WCI   4
LANCASTER      LGT SNOW  17  13  84 E9        30.23F VSB 3/4 WCI   6
ZANESVILLE     CLOUDY    21   3  45 SE10      30.25F WCI  10
NEW PHILLY     CLOUDY    19   2  47 E7        30.29F WCI  10
$$



USA.gov is the U.S. government's official web portal to all federal, state and local government web resources and services.